{"data":{"norad_id":69882,"epoch":"2026-09-19T23:01:00.861600Z","epoch_age_seconds":68402,"freshness":"FRESH","line1":"1 69882U 26156P   26262.95903775  .00001213  00000+0  12722-3 0  9999","line2":"2 69882  97.7482 162.1236 0001876 271.8171  88.2833 14.91352311 11129","mean_motion":14.91352311,"eccentricity":0.0001876,"inclination_deg":97.7482,"raan_deg":162.1236,"arg_perigee_deg":271.8171,"mean_anomaly_deg":88.2833,"bstar":0.00012722,"rev_number":1112,"period_min":96.556661318641,"perigee_km":592.40998667049,"apogee_km":595.02582663147,"semimajor_km":6971.854906651,"source":"CELESTRAK","updated_at":"2026-09-20T09:00:25.166011Z"}}